"2010-10-03 00:00:00",213421,6.581,34.26,1.287,0.417,16.69,106.288,15.37,16.28,47.31,0,110.5,13.3,16.18,356.3
"2010-10-03 00:00:30",213422,6.698,34.54,1.473,0.528,16.7,106.2756,15.34,16.27,47.46,0,110.5,13.3,16.14,356.5
"2010-10-03 00:01:00",213423,6.566,34.68,1.734,0.72,16.73,106.2545,15.28,16.23,47.6,0,110.5,13.3,16.09,356.7
"2010-10-03 00:01:30",213424,6.157,33.2,1.074,0.407,16.72,106.2542,15.28,16.2,47.67,0,110.5,13.3,16.09,355.2
"2010-10-03 00:02:00",213425,5.558,31.6,2.111,0.649,16.75,106.2489,15.27,16.19,47.81,0,110.5,13.3,16.08,353.6
"2010-10-03 00:02:30",213426,5.394,31.3,1.403,0.441,16.71,106.2238,15.21,16.16,47.85,0,110.5,13.3,16.01,353.3
"2010-10-03 00:03:00",213427,5.374,31.05,1.655,0.522,16.7,106.2204,15.2,16.14,47.97,0,110.5,13.3,16.00,353.0
"2010-10-03 00:03:30",213428,5.777,31.88,1.288,0.466,16.68,106.2196,15.2,16.12,48.2,0,110.5,13.3,16.00,353.9
"2010-10-03 00:04:00",213429,5.046,29.09,1.321,0.124,16.57,106.2013,15.15,16.08,48.32,0,110.5,13.3,15.95,351.1
"2010-10-03 00:04:30",213430,5.05,28.3,1.498,0.141,16.62,106.1877,15.11,16.07,48.56,0,110.5,13.3,15.92,350.3
"2010-10-03 00:05:00",213431,5.001,27.66,1.232,0.218,16.6,106.1866,15.11,16.04,48.82,0,110.5,13.3,15.92,349.7
"2010-10-03 00:05:30",213432,5.438,26.75,3.165,0.548,16.6,106.1827,15.1,16.01,48.9,0,110.5,13.3,15.91,348.8
"2010-10-03 00:06:00",213433,5.041,29.9,1.871,0.369,16.61,106.1587,15.04,16,49.24,0,110.5,13.31,15.84,351.9
"2010-10-03 00:06:30",213434,4.812,27.96,1.648,0.182,16.63,106.1531,15.02,16,49.42,0,110.5,13.31,15.83,350.0
"2010-10-03 00:07:00",213435,4.585,28.95,1.289,0.218,16.69,106.1528,15.02,15.96,49.4,0,110.5,13.31,15.83,351.0
"2010-10-03 00:07:30",213436,4.698,29.8,1.568,0.324,16.64,106.1528,15.02,15.95,49.53,0,110.5,13.31,15.83,351.8
"2010-10-03 00:08:00",213437,5.041,28.02,2.543,0.317,16.56,106.1528,15.02,15.94,49.53,0,110.5,13.31,15.83,350.0
"2010-10-03 00:08:30",213438,4.77,26.95,1.71,0.317,16.5,106.1469,15.01,15.92,49.5,0,110.5,13.31,15.81,349.0
"2010-10-03 00:09:00",213439,5.34,24.41,1.415,0.349,16.55,106.1263,14.96,15.9,49.67,0,110.5,13.31,15.76,346.4
"2010-10-03 00:09:30",213440,4.86,25.91,1.849,0.36,16.52,106.119,14.94,15.87,49.75,0,110.5,13.31,15.74,347.9
"2010-10-03 00:10:00",213441,5.024,25.13,1.294,0.344,16.57,106.119,14.94,15.88,49.95,0,110.5,13.31,15.74,347.1
"2010-10-03 00:10:30",213442,4.904,25.65,1.732,0.405,16.59,106.119,14.94,15.86,50.01,0,110.5,13.31,15.74,347.6
"2010-10-03 00:11:00",213443,4.948,26.32,1.655,0.306,16.58,106.119,14.94,15.85,50.14,0,110.5,13.3,15.74,348.3
"2010-10-03 00:11:30",213444,4.863,27.67,1.45,0.281,16.58,106.1156,14.93,15.84,50.15,0,110.5,13.3,15.73,349.7
"2010-10-03 00:12:00",213445,4.809,26.06,1.301,0.323,16.59,106.1105,14.92,15.82,50.14,0,110.5,13.3,15.72,348.1
"2010-10-03 00:12:30",213446,4.837,28.2,1.167,0.258,16.6,106.1083,14.91,15.83,50.05,0,110.5,13.3,15.71,350.2
"2010-10-03 00:13:00",213447,4.754,28.69,1.363,0.386,16.62,106.1074,14.91,15.8,50,0,110.5,13.3,15.71,350.7
"2010-10-03 00:13:30",213448,4.801,29.72,0.961,0.303,16.61,106.1086,14.91,15.81,49.96,0,110.5,13.31,15.72,351.7
"2010-10-03 00:14:00",213449,4.85,27.73,2.152,0.62,16.55,106.1018,14.89,15.81,50.19,0,110.5,13.31,15.70,349.7
"2010-10-03 00:14:30",213450,5.232,30.08,1.254,0.442,16.52,106.0866,14.85,15.8,50.35,0,110.5,13.31,15.66,352.1
"2010-10-03 00:15:00",213451,4.518,28.1,1.513,0.254,16.53,106.0855,14.85,15.78,50.49,0,110.5,13.31,15.66,350.1
"2010-10-03 00:15:30",213452,4.709,25.55,2.379,0.388,16.47,106.0858,14.85,15.78,50.53,0,110.5,13.31,15.66,347.5
"2010-10-03 00:16:00",213453,4.545,27.66,1.561,0.44,16.52,106.0849,14.85,15.76,50.55,0,110.5,13.31,15.65,349.7
"2010-10-03 00:16:30",213454,5.183,28.13,1.637,0.533,16.53,106.0766,14.83,15.76,50.62,0,110.5,13.31,15.63,350.1
"2010-10-03 00:17:00",213455,5.105,29.21,1.251,0.354,16.55,106.0743,14.82,15.74,50.54,0,110.5,13.31,15.63,351.2
"2010-10-03 00:17:30",213456,4.721,28.46,1.377,0.229,16.59,106.0773,14.83,15.72,50.29,0,110.5,13.32,15.63,350.5
"2010-10-03 00:18:00",213457,4.641,28.07,1.542,0.326,16.55,106.0777,14.83,15.72,50.33,0,110.5,13.32,15.64,350.1
"2010-10-03 00:18:30",213458,5.384,27.93,1.914,0.474,16.57,106.0724,14.82,15.72,50.52,0,110.5,13.32,15.62,349.9
"2010-10-03 00:19:00",213459,5.318,27.34,2.888,0.588,16.56,106.0681,14.81,15.72,50.42,0,110.5,13.32,15.61,349.3
"2010-10-03 00:19:30",213460,4.843,29.23,1.55,0.298,16.57,106.0691,14.81,15.72,50.29,0,110.5,13.31,15.61,351.2
"2010-10-03 00:20:00",213461,4.692,27.85,1.284,0.153,16.59,106.0678,14.81,15.71,50.47,0,110.5,13.32,15.61,349.9
"2010-10-03 00:20:30",213462,4.914,27.83,0.917,0.264,16.61,106.0708,14.81,15.71,50.67,0,110.5,13.32,15.62,349.8
"2010-10-03 00:21:00",213463,4.826,28.1,1.163,0.178,16.57,106.0705,14.81,15.71,50.6,0,110.5,13.32,15.62,350.1
"2010-10-03 00:21:30",213464,4.656,27.28,1.149,0.135,16.5,106.0708,14.81,15.7,50.7,0,110.5,13.32,15.62,349.3
"2010-10-03 00:22:00",213465,5.167,28.85,0.953,0.293,16.5,106.0747,14.82,15.71,50.36,0,110.5,13.32,15.63,350.9
"2010-10-03 00:22:30",213466,5.12,29.01,0.747,0.221,16.55,106.075,14.82,15.7,50.3,0,110.5,13.32,15.63,351.0
"2010-10-03 00:23:00",213467,5.141,30.09,0.672,0.237,16.54,106.078,14.83,15.69,50.38,0,110.5,13.32,15.64,352.1
"2010-10-03 00:23:30",213468,4.876,29.4,0.865,0.168,16.62,106.078,14.83,15.7,49.84,0,110.5,13.32,15.64,351.4
"2010-10-03 00:24:00",213469,4.749,29.46,1.129,0.149,16.57,106.0825,14.84,15.7,49.58,0,110.5,13.32,15.65,351.5
"2010-10-03 00:24:30",213470,4.806,29.47,1.017,0.21,16.59,106.0849,14.85,15.69,49.74,0,110.5,13.32,15.65,351.5
"2010-10-03 00:25:00",213471,4.85,30.11,2.225,0.446,16.55,106.0857,14.85,15.68,49.84,0,110.5,13.32,15.66,352.1
"2010-10-03 00:25:30",213472,4.798,30.52,1.268,0.231,16.49,106.0863,14.85,15.68,50.34,0,110.5,13.32,15.66,352.5
"2010-10-03 00:26:00",213473,4.673,29.36,1.316,0.238,16.48,106.0864,14.85,15.69,50.12,0,110.5,13.32,15.66,351.4
"2010-10-03 00:26:30",213474,4.644,29.12,1.381,0.266,16.51,106.0788,14.83,15.69,49.84,0,110.5,13.32,15.64,351.1
"2010-10-03 00:27:00",213475,4.797,28.81,1.116,0.374,16.52,106.0706,14.81,15.67,49.8,0,110.5,13.32,15.62,350.8
"2010-10-03 00:27:30",213476,4.663,29.04,1.161,0.182,16.57,106.0593,14.78,15.66,49.63,0,110.5,13.31,15.59,351.0
"2010-10-03 00:28:00",213477,4.669,27.87,1.747,0.204,16.52,106.0557,14.78,15.66,49.76,0,110.5,13.31,15.58,349.9
"2010-10-03 00:28:30",213478,4.835,27.51,1.247,0.167,16.55,106.0534,14.77,15.66,49.89,0,110.5,13.31,15.57,349.5
"2010-10-03 00:29:00",213479,4.803,26.86,1.269,0.208,16.5,106.0534,14.77,15.64,50.42,0,110.5,13.31,15.57,348.9
"2010-10-03 00:29:30",213480,4.96,26.86,0.673,0.183,16.48,106.0534,14.77,15.64,50.53,0,110.5,13.31,15.57,348.9
"2010-10-03 00:30:00",213481,5.041,27.45,1.3,0.202,16.48,106.0534,14.77,15.64,49.9,0,110.5,13.32,15.57,349.5
"2010-10-03 00:30:30",213482,5.066,26.57,1.237,0.185,16.45,106.0498,14.76,15.62,50.38,0,110.5,13.31,15.56,348.6
"2010-10-03 00:31:00",213483,5.315,26.1,1.316,0.25,16.45,106.0264,14.7,15.59,50.66,0,110.5,13.32,15.50,348.1
"2010-10-03 00:31:30",213484,5.263,27.1,1.397,0.216,16.45,106.0196,14.68,15.58,50.16,0,110.5,13.32,15.49,349.1
"2010-10-03 00:32:00",213485,5.136,27.13,1.026,0.131,16.47,106.0196,14.68,15.56,49.94,0,110.5,13.32,15.49,349.1
"2010-10-03 00:32:30",213486,5.211,26.62,0.951,0.168,16.6,106.0196,14.68,15.56,49.79,0,110.5,13.32,15.49,348.6
"2010-10-03 00:33:00",213487,5.314,26.85,1.011,0.145,16.6,106.0196,14.68,15.55,49.83,0,110.5,13.32,15.49,348.9
"2010-10-03 00:33:30",213488,5.234,26.28,1.035,0.119,16.63,106.0196,14.68,15.55,49.85,0,110.4,13.32,15.49,348.3
"2010-10-03 00:34:00",213489,5.24,24.54,1.115,0.161,16.6,106.0196,14.68,15.57,49.72,0,110.4,13.32,15.49,346.5
"2010-10-03 00:34:30",213490,5.298,23.07,1.201,0.185,16.64,106.0199,14.68,15.58,49.72,0,110.4,13.32,15.49,345.1
"2010-10-03 00:35:00",213491,5.408,23.1,1.145,0.238,16.62,106.0224,14.69,15.58,49.71,0,110.4,13.32,15.49,345.1
"2010-10-03 00:35:30",213492,4.997,25.07,0.94,0.215,16.6,106.0303,14.71,15.58,49.89,0,110.4,13.33,15.51,347.1
"2010-10-03 00:36:00",213493,4.877,25.94,1.373,0.199,16.61,106.0422,14.74,15.59,49.94,0,110.4,13.33,15.54,347.9
"2010-10-03 00:36:30",213494,4.911,25.56,1.305,0.286,16.6,106.0461,14.75,15.6,49.88,0,110.4,13.33,15.55,347.6
"2010-10-03 00:37:00",213495,5.096,24.45,1.711,0.308,16.59,106.0475,14.75,15.59,49.89,0,110.4,13.33,15.56,346.5
"2010-10-03 00:37:30",213496,4.917,25.32,1.409,0.252,16.6,106.0472,14.75,15.61,50.08,0,110.4,13.33,15.56,347.3
"2010-10-03 00:38:00",213497,5.17,24.88,2.118,0.441,16.6,106.0492,14.76,15.59,50.08,0,110.4,13.33,15.56,346.9
"2010-10-03 00:38:30",213498,5.097,24.55,1.622,0.375,16.6,106.0506,14.76,15.61,50.07,0,110.4,13.33,15.57,346.5
"2010-10-03 00:39:00",213499,5.021,25.93,3.574,0.366,16.73,106.0531,14.77,15.62,50.34,0,110.4,13.33,15.57,347.9
"2010-10-03 00:39:30",213500,5.106,25.29,2.637,0.424,16.72,106.0534,14.77,15.63,50.16,0,110.4,13.33,15.57,347.3
"2010-10-03 00:40:00",213501,5.119,26.58,2.013,0.41,16.61,106.0534,14.77,15.62,50.14,0,110.4,13.33,15.57,348.6
"2010-10-03 00:40:30",213502,5.269,21.98,4.137,0.481,16.56,106.0534,14.77,15.64,49.99,0,110.4,13.33,15.57,344.0
"2010-10-03 00:41:00",213503,5.398,23.51,2.545,0.36,16.54,106.0534,14.77,15.65,49.96,0,110.4,13.33,15.57,345.5
"2010-10-03 00:41:30",213504,5.269,23.87,2.714,0.525,16.54,106.0534,14.77,15.64,49.92,0,110.4,13.33,15.57,345.9
"2010-10-03 00:42:00",213505,5.235,23.23,2.419,0.532,16.52,106.05,14.76,15.63,49.91,0,110.4,13.33,15.56,345.2
"2010-10-03 00:42:30",213506,5.076,25.02,1.883,0.382,16.53,106.0424,14.74,15.62,50.09,0,110.4,13.33,15.54,347.0
"2010-10-03 00:43:00",213507,4.873,27.26,1.576,0.314,16.54,106.0266,14.7,15.61,50.12,0,110.4,13.33,15.50,349.3
"2010-10-03 00:43:30",213508,4.832,29.72,2.134,0.374,16.66,106.0281,14.7,15.63,50.31,0,110.4,13.32,15.51,351.7
"2010-10-03 00:44:00",213509,5.381,33.08,3.197,0.809,16.74,106.0501,14.76,15.63,50.27,0,110.4,13.32,15.56,355.1
"2010-10-03 00:44:30",213510,5.494,34.54,2.043,0.553,16.77,106.0552,14.77,15.65,50.19,0,110.4,13.32,15.58,356.5
"2010-10-03 00:45:00",213511,5.864,36.42,2.989,0.467,16.71,106.0546,14.77,15.66,50.06,0,110.4,13.32,15.58,358.4
"2010-10-03 00:45:30",213512,5.142,33.24,2.693,0.693,16.55,106.0549,14.77,15.67,50.06,0,110.4,13.32,15.58,355.2
"2010-10-03 00:46:00",213513,4.782,30.62,3.039,0.612,16.51,106.0555,14.78,15.69,50.02,0,110.4,13.32,15.58,352.6
"2010-10-03 00:46:30",213514,4.886,31.03,4.002,0.741,16.48,106.0558,14.78,15.66,49.9,0,110.4,13.32,15.58,353.0
"2010-10-03 00:47:00",213515,5.335,33.94,4.974,0.865,16.52,106.0563,14.78,15.65,50.02,0,110.4,13.32,15.58,355.9
"2010-10-03 00:47:30",213516,5.401,33.49,2.924,0.647,16.49,106.0433,14.74,15.63,50.13,0,110.4,13.32,15.55,355.5
"2010-10-03 00:48:00",213517,5.628,33.86,2.324,0.756,16.45,106.0253,14.7,15.62,50.19,0,110.4,13.32,15.50,355.9
"2010-10-03 00:48:30",213518,5.546,32.76,2.614,0.69,16.44,106.0244,14.7,15.61,50.24,0,110.4,13.33,15.50,354.8
"2010-10-03 00:49:00",213519,5.462,30.62,2.812,0.572,16.44,106.0209,14.69,15.6,50.37,0,110.4,13.33,15.49,352.6
"2010-10-03 00:49:30",213520,5.323,28.57,3.429,0.453,16.4,105.9984,14.63,15.58,50.43,0,110.4,13.33,15.43,350.6
"2010-10-03 00:50:00",213521,6.81,37.35,6.217,1.314,18.3,105.993,14.61,15.7,50.66,0,110.4,13.3,15.42,359.4
"2010-10-03 00:50:30",213522,6.471,33.89,10.39,1.47,18.23,105.9921,14.61,15.69,50.61,0,110.4,13.3,15.42,355.9
"2010-10-03 00:51:00",213523,5.317,23.85,4.424,0.525,15.97,105.9945,14.62,15.52,50.47,0,110.4,13.33,15.42,345.9
"2010-10-03 00:51:30",213524,5.583,30.17,3.642,0.509,15.8,105.9828,14.59,15.51,50.55,0,110.4,13.33,15.39,352.2
"2010-10-03 00:52:00",213525,5.665,31.39,3.505,0.774,15.96,105.9763,14.57,15.51,50.69,0,110.4,13.33,15.38,353.4
"2010-10-03 00:52:30",213526,5.606,33.23,2.232,0.629,16.24,105.9892,14.61,15.5,50.81,0,110.4,13.33,15.41,355.2
"2010-10-03 00:53:00",213527,5.548,26.87,5.312,0.555,16.06,106.0031,14.64,15.51,50.56,0,110.4,13.33,15.44,348.9
"2010-10-03 00:53:30",213528,4.794,26.42,4.148,0.573,16.1,105.9964,14.62,15.51,50.56,0,110.4,13.33,15.43,348.4
"2010-10-03 00:54:00",213529,5.372,31,1.749,0.716,16.15,105.9782,14.58,15.49,50.56,0,110.4,13.33,15.38,353.0
"2010-10-03 00:54:30",213530,6.754,36.32,2.009,0.445,16.48,105.9777,14.58,15.48,50.78,0,110.4,13.33,15.38,358.3
"2010-10-03 00:55:00",213531,6.609,36.82,2.325,0.636,16.8,106.004,14.64,15.5,50.85,0,110.4,13.33,15.45,358.8
"2010-10-03 00:55:30",213532,6.656,36.53,2.479,0.566,16.52,106.0195,14.68,15.53,50.79,0,110.4,13.33,15.49,358.5
"2010-10-03 00:56:00",213533,5.447,31.24,3.047,0.831,16.35,106.0377,14.73,15.55,50.59,0,110.4,13.33,15.53,353.2
"2010-10-03 00:56:30",213534,5.654,30.35,4.301,0.524,16.42,106.0218,14.69,15.55,50.6,0,110.4,13.33,15.49,352.4
"2010-10-03 00:57:00",213535,5.547,25.78,2.56,0.514,16.36,106.0129,14.67,15.55,50.5,0,110.4,13.33,15.47,347.8
"2010-10-03 00:57:30",213536,5.133,25.42,2.942,0.372,16.33,106.0124,14.66,15.54,50.42,0,110.4,13.33,15.47,347.4
"2010-10-03 00:58:00",213537,5.498,24.89,3.072,0.539,16.3,106.0059,14.65,15.51,50.57,0,110.4,13.33,15.45,346.9
"2010-10-03 00:58:30",213538,6.261,24.56,3.718,0.74,16.33,105.9814,14.59,15.5,50.59,0,110.4,13.33,15.39,346.6
"2010-10-03 00:59:00",213539,6.91,24.23,5.445,1.275,16.85,105.9786,14.58,15.48,50.62,0,110.4,13.3,15.38,346.2
"2010-10-03 00:59:30",213540,7.795,32.21,7.098,1.376,19.24,105.9679,14.55,15.69,50.99,0,110.4,13.3,15.35,354.2
"2010-10-03 01:00:00",213541,6.151,22.38,5.217,1.153,17.11,105.9453,14.49,15.61,50.88,0,110.4,13.3,15.30,344.4
"2010-10-03 01:00:30",213542,7.261,30.28,5.828,1.507,18.3,105.9474,14.5,15.52,51.06,0,110.4,13.29,15.30,352.3
"2010-10-03 01:01:00",213543,6.372,33.03,7.806,1.356,16.98,105.9492,14.5,15.53,51.34,0,110.4,13.29,15.31,355.0
"2010-10-03 01:01:30",213544,5.268,29.62,2.118,0.448,14.51,105.948,14.5,15.37,51.29,0,110.4,13.32,15.30,351.6
"2010-10-03 01:02:00",213545,6.003,34.98,2.422,0.56,14.65,105.9486,14.5,15.37,51.35,0,110.4,13.32,15.30,357.0
"2010-10-03 01:02:30",213546,5.785,36.81,0.724,0.207,15.17,105.9566,14.52,15.4,51.37,0,110.4,13.32,15.32,358.8
"2010-10-03 01:03:00",213547,5.893,39.21,0.763,0.066,15.67,105.9866,14.6,15.43,51.19,0,110.4,13.32,15.40,1.2
"2010-10-03 01:03:30",213548,5.826,40.63,0.455,0.086,15.86,106.0156,14.67,15.47,50.98,0,110.4,13.33,15.48,2.6
"2010-10-03 01:04:00",213549,5.959,41.2,1.99,0.205,15.93,106.0445,14.75,15.52,50.77,0,110.4,13.32,15.55,3.2
"2010-10-03 01:04:30",213550,6.112,40.91,2.386,0.27,16.12,106.0549,14.77,15.56,50.58,0,110.4,13.33,15.58,2.9
"2010-10-03 01:05:00",213551,6.821,40.72,2.619,0.333,16.05,106.0551,14.77,15.6,50.55,0,110.4,13.33,15.58,2.7
"2010-10-03 01:05:30",213552,6.287,33.59,3.214,0.62,15.8,106.0549,14.77,15.6,50.32,0,110.4,13.33,15.58,355.6
"2010-10-03 01:06:00",213553,5.978,30.76,2.723,0.505,15.96,106.0328,14.72,15.57,50.42,0,110.4,13.33,15.52,352.8
"2010-10-03 01:06:30",213554,6.207,27.66,4.496,0.642,16,106.0137,14.67,15.53,50.48,0,110.4,13.33,15.47,349.7
"2010-10-03 01:07:00",213555,7.602,30.33,7.107,1.794,18.21,105.9881,14.6,15.58,50.72,0,110.4,13.3,15.41,352.3
"2010-10-03 01:07:30",213556,7.605,30.24,7.686,1.39,18.07,105.9734,14.56,15.59,50.93,0,110.4,13.3,15.37,352.2
"2010-10-03 01:08:00",213557,7.997,26.81,5.834,1.345,17.25,105.954,14.51,15.59,50.98,0,110.4,13.3,15.32,348.8
"2010-10-03 01:08:30",213558,9.73,31.39,7.137,1.242,19.14,105.9264,14.44,15.6,51.13,0,110.4,13.3,15.25,353.4
"2010-10-03 01:09:00",213559,9.69,33.43,6.261,1.189,19,105.9151,14.42,15.52,51.29,0,110.4,13.3,15.22,355.4
"2010-10-03 01:09:30",213560,7.88,21.26,1.467,0.405,14.43,105.8866,14.34,15.33,51.27,0,110.4,13.33,15.14,343.3
"2010-10-03 01:10:00",213561,7.1,21.38,1.91,0.449,14.27,105.886,14.34,15.26,51.37,0,110.4,13.33,15.14,343.4
"2010-10-03 01:10:30",213562,7.186,20.77,1.92,0.378,14.45,105.8719,14.3,15.23,51.45,0,110.4,13.33,15.11,342.8
"2010-10-03 01:11:00",213563,6.796,19.63,2.397,0.701,14.81,105.8525,14.26,15.2,51.58,0,110.4,13.33,15.06,341.6
"2010-10-03 01:11:30",213564,6.84,19.89,1.985,0.491,15.1,105.8525,14.26,15.16,51.66,0,110.4,13.33,15.06,341.9
"2010-10-03 01:12:00",213565,6.293,19.52,4.724,0.875,16.6,105.8412,14.23,15.16,51.57,0,110.4,13.3,15.03,341.5
"2010-10-03 01:12:30",213566,5.389,15.49,4.858,0.945,16.6,105.8187,14.17,15.26,51.77,0,110.4,13.3,14.97,337.5
"2010-10-03 01:13:00",213567,5.007,5.731,5.478,1.073,15.87,105.8173,14.16,15.07,51.7,0,110.4,13.3,14.97,327.7
"2010-10-03 01:13:30",213568,4.918,1.809,2.844,0.689,15.05,105.7919,14.1,15.04,51.81,0,110.4,13.33,14.90,323.8
"2010-10-03 01:14:00",213569,6.214,6.499,7.227,1.295,17.21,105.7848,14.08,15.14,52.05,0,110.4,13.3,14.88,328.5
"2010-10-03 01:14:30",213570,6.185,14.44,6.982,1.417,18.51,105.7834,14.08,15.23,52.33,0,110.4,13.3,14.88,336.4
"2010-10-03 01:15:00",213571,6.241,18.15,8.59,1.616,17.94,105.7575,14.01,15.21,52.45,0,110.4,13.3,14.81,340.1
"2010-10-03 01:15:30",213572,4.767,10.12,4.164,0.484,14.04,105.751,14,14.93,52.42,0,110.4,13.33,14.80,332.1
"2010-10-03 01:16:00",213573,4.654,11.18,3.487,0.551,13.77,105.751,14,14.92,52.6,0,110.4,13.33,14.80,333.2
"2010-10-03 01:16:30",213574,5.295,16.73,2.911,0.695,13.96,105.7513,14,14.92,52.73,0,110.4,13.33,14.80,338.7
"2010-10-03 01:17:00",213575,4.465,13.93,3.891,0.625,14.3,105.7516,14,14.91,52.67,0,110.4,13.33,14.80,335.9
"2010-10-03 01:17:30",213576,4.925,2.365,7.247,0.661,14.62,105.751,14,14.9,52.53,0,110.4,13.33,14.80,324.4
"2010-10-03 01:18:00",213577,6.656,1.558,7.604,1.178,16.67,105.751,14,15.02,52.51,0,110.4,13.29,14.80,323.6
"2010-10-03 01:18:30",213578,7.607,358.6,5.221,2.378,16.94,105.7507,13.99,15.01,52.53,0,110.4,13.29,14.80,320.6
"2010-10-03 01:19:00",213579,7.885,352.7,3.784,1.202,15.27,105.7403,13.97,14.86,52.4,0,110.4,13.3,14.77,314.7
"2010-10-03 01:19:30",213580,8.47,349.8,2.242,0.682,14.99,105.727,13.93,14.85,52.57,0,110.4,13.33,14.73,311.8
"2010-10-03 01:20:00",213581,10.11,355.9,5.782,1.696,17.66,105.7248,13.93,14.99,52.78,0,110.4,13.3,14.73,317.9
"2010-10-03 01:20:30",213582,9.9,357.3,7.792,1.828,18.18,105.7256,13.93,15.06,52.82,0,110.4,13.29,14.73,319.3
"2010-10-03 01:21:00",213583,7.648,1.077,7.435,1.728,17.8,105.7259,13.93,15.12,52.95,0,110.4,13.29,14.73,323.1
"2010-10-03 01:21:30",213584,7.08,356.6,4.841,1.449,15.19,105.7285,13.94,14.87,52.81,0,110.4,13.3,14.74,318.6
"2010-10-03 01:22:00",213585,7.578,349.9,2.515,0.759,14.28,105.7403,13.97,14.89,52.99,0,110.4,13.33,14.77,311.9
"2010-10-03 01:22:30",213586,8.02,351,4.506,1.254,14.82,105.751,14,14.85,52.74,0,110.4,13.3,14.80,313.0
"2010-10-03 01:23:00",213587,8.66,348.4,6.324,1.183,15.71,105.751,14,14.99,52.82,0,110.4,13.3,14.80,310.4
"2010-10-03 01:23:30",213588,8.8,351.9,7.425,0.993,15.92,105.751,14,14.87,52.74,0,110.4,13.3,14.80,313.9
"2010-10-03 01:24:00",213589,8.62,346.2,1.441,0.237,14.71,105.751,14,14.87,52.73,0,110.4,13.33,14.80,308.2
"2010-10-03 01:24:30",213590,7.682,350.1,2.84,0.896,14.88,105.751,14,14.88,52.79,0,110.4,13.33,14.80,312.1
"2010-10-03 01:25:00",213591,8.17,350.4,1.493,0.584,15.13,105.751,14,14.88,52.72,0,110.4,13.34,14.80,312.4
"2010-10-03 01:25:30",213592,8.39,349.2,1.095,0.401,15.46,105.7541,14,14.89,52.65,0,110.4,13.34,14.80,311.2
"2010-10-03 01:26:00",213593,10.38,356.7,5.825,1.524,19.23,105.7769,14.06,15.14,52.84,0,110.4,13.3,14.86,318.7
"2010-10-03 01:26:30",213594,10.7,358.3,6.881,1.185,19.47,105.7846,14.08,15.13,52.77,0,110.4,13.3,14.88,320.3
"2010-10-03 01:27:00",213595,8.71,347.2,3.319,0.762,15.23,105.7848,14.08,14.97,52.56,0,110.4,13.3,14.88,309.2
"2010-10-03 01:27:30",213596,9.2,353.3,8.7,1.215,16.84,105.7848,14.08,14.98,52.59,0,110.4,13.3,14.88,315.3
"2010-10-03 01:28:00",213597,8.43,355.4,5.503,2.036,17.19,105.7848,14.08,15.13,52.79,0,110.4,13.3,14.88,317.4
"2010-10-03 01:28:30",213598,9.1,352.5,6.177,1.383,16.3,105.7848,14.08,15.02,52.67,0,110.4,13.3,14.88,314.5
"2010-10-03 01:29:00",213599,8.51,346.8,1.863,0.186,14.58,105.7848,14.08,15.03,52.59,0,110.4,13.34,14.88,308.8
"2010-10-03 01:29:30",213600,8.02,347,0.974,0.215,14.42,105.7922,14.1,14.97,52.46,0,110.4,13.34,14.90,309.0
"2010-10-03 01:30:00",213601,7.996,345.8,1.06,0.112,14.7,105.8164,14.16,14.99,52.36,0,110.4,13.34,14.96,307.8
"2010-10-03 01:30:30",213602,8.17,345.2,0.936,0.192,15.08,105.8187,14.17,15.01,52.3,0,110.4,13.34,14.97,307.2
"2010-10-03 01:31:00",213603,8.11,344.8,0.909,0.126,15.38,105.8187,14.17,15.02,52.17,0,110.4,13.34,14.97,306.8
"2010-10-03 01:31:30",213604,8.26,344.6,0.754,0.097,15.65,105.8187,14.17,15.04,51.9,0,110.4,13.34,14.97,306.6
"2010-10-03 01:32:00",213605,8.4,347.3,4.088,0.704,16.21,105.8212,14.17,15.05,51.91,0,110.4,13.3,14.98,309.3
"2010-10-03 01:32:30",213606,8.36,349.9,5.469,1.263,17.07,105.8395,14.22,15.2,52.07,0,110.4,13.3,15.02,311.9
"2010-10-03 01:33:00",213607,8.56,352.7,6.581,1.486,17.59,105.8525,14.26,15.08,52.13,0,110.4,13.3,15.06,314.7
"2010-10-03 01:33:30",213608,8.01,348.4,3.663,0.944,16.09,105.8525,14.26,15.12,52.11,0,110.4,13.3,15.06,310.4
"2010-10-03 01:34:00",213609,9.26,357.2,6.958,1.279,19.25,105.8525,14.26,15.39,52.28,0,110.4,13.3,15.06,319.2
"2010-10-03 01:34:30",213610,8.45,355.7,6.655,1.466,18.03,105.8525,14.26,15.29,52.08,0,110.4,13.29,15.06,317.7
"2010-10-03 01:35:00",213611,7.032,347.5,0.674,0.124,14.46,105.8525,14.26,15.13,51.9,0,110.4,13.33,15.06,309.5
"2010-10-03 01:35:30",213612,7.314,346.8,0.523,0.171,14.36,105.8525,14.26,15.24,51.51,0,110.4,13.33,15.06,308.8
"2010-10-03 01:36:00",213613,8.67,352.6,6.947,1.386,16.75,105.8525,14.26,15.22,51.25,0,110.4,13.29,15.06,314.6
"2010-10-03 01:36:30",213614,7.402,346.2,1.074,0.155,14.65,105.8525,14.26,15.23,51.38,0,110.4,13.33,15.06,308.2
"2010-10-03 01:37:00",213615,7.498,345.8,0.989,0.139,14.75,105.8525,14.26,15.14,51.27,0,110.4,13.33,15.06,307.8
"2010-10-03 01:37:30",213616,7.444,344.8,0.837,0.088,14.99,105.8525,14.26,15.14,51.09,0,110.4,13.33,15.06,306.8
"2010-10-03 01:38:00",213617,7.535,343.8,0.747,0.082,15.26,105.8525,14.26,15.15,51.05,0,110.4,13.34,15.06,305.8
"2010-10-03 01:38:30",213618,7.455,343.7,1.164,0.089,15.51,105.8525,14.26,15.16,51.23,0,110.4,13.34,15.06,305.7
"2010-10-03 01:39:00",213619,7.522,343.1,1.105,0.186,15.71,105.8525,14.26,15.15,51.29,0,110.4,13.34,15.06,305.1
"2010-10-03 01:39:30",213620,8.9,348.6,6.503,1.422,18.07,105.8525,14.26,15.33,51.15,0,110.4,13.3,15.06,310.6
"2010-10-03 01:40:00",213621,9.44,352.3,6.216,1.309,19.44,105.8525,14.26,15.37,51.19,0,110.4,13.3,15.06,314.3
"2010-10-03 01:40:30",213622,7.856,343.9,2.769,0.716,15.61,105.8525,14.26,15.19,51.18,0,110.4,13.31,15.06,305.9
"2010-10-03 01:41:00",213623,7.681,344.5,2.632,0.092,15.38,105.8525,14.26,15.29,51.11,0,110.4,13.3,15.06,306.5
"2010-10-03 01:41:30",213624,8.72,352.8,6.115,1.438,17,105.8525,14.26,15.2,51.15,0,110.4,13.3,15.06,314.8
"2010-10-03 01:42:00",213625,7.419,347,0.554,0.074,14.6,105.8525,14.26,15.15,51.03,0,110.4,13.34,15.06,309.0
"2010-10-03 01:42:30",213626,7.281,346.3,0.766,0.096,14.44,105.8517,14.25,15.14,51.16,0,110.4,13.34,15.05,308.3
"2010-10-03 01:43:00",213627,8.01,349.1,5.901,1.252,16.13,105.8333,14.21,15.19,51.34,0,110.4,13.3,15.01,311.1
"2010-10-03 01:43:30",213628,8.15,346.4,6.265,1.147,15.65,105.8192,14.17,15.17,51.42,0,110.4,13.3,14.97,308.4
"2010-10-03 01:44:00",213629,8.34,347.1,6.481,1.201,16.53,105.8187,14.17,15.24,51.42,0,110.4,13.3,14.97,309.1
"2010-10-03 01:44:30",213630,7.453,343.7,0.775,0.09,14.99,105.8187,14.17,15.08,51.4,0,110.4,13.34,14.97,305.7
"2010-10-03 01:45:00",213631,8.29,348.5,6.786,1.246,17.25,105.8187,14.17,15.22,51.61,0,110.4,13.31,14.97,310.5
"2010-10-03 01:45:30",213632,8.8,353.5,6.041,1.184,18.75,105.8178,14.17,15.3,51.62,0,110.4,13.3,14.97,315.5
"2010-10-03 01:46:00",213633,7.72,350.6,7.093,1.385,17.29,105.8187,14.17,15.19,51.46,0,110.4,13.3,14.97,312.6
"2010-10-03 01:46:30",213634,6.216,345.7,1.177,0.164,14.59,105.8187,14.17,15.08,51.41,0,110.4,13.34,14.97,307.7
"2010-10-03 01:47:00",213635,5.536,349.5,1.662,0.376,14.72,105.8187,14.17,15.07,51.69,0,110.4,13.34,14.97,311.5
"2010-10-03 01:47:30",213636,4.797,352,0.904,0.223,14.9,105.8209,14.17,15.08,51.87,0,110.4,13.34,14.98,314.0
"2010-10-03 01:48:00",213637,4.755,351.2,1.21,0.205,15.14,105.8398,14.22,15.09,52,0,110.4,13.34,15.02,313.2